User: anonymous   Login
Location: Unspecified
(0.0000°N, 0.0000°E)
Time: 04:59:02
(UTC+00:00)
Language:

OFEQ 7 - Orbit

View from above orbital plane
View from above orbital plane
View from above satellite
View from above satellite

Ground track
Ground track

The orbit data is extracted from the following two-line orbital elements,

1 31601U 07025A   20047.73092576 0.00001400  00000-0  52298-4 0    05
2 31601 141.7093 175.2134 0006998 120.9081 239.0911 15.26450018    01
Epoch (UTC): 16 February 2020 17:32:31
Eccentricity: 0.0006998
inclination: 141.7093°
perigee height: 481 km
apogee height: 491 km
right ascension of ascending node: 175.2134°
argument of perigee: 120.9081°
revolutions per day: 15.26450018
mean anomaly at epoch: 239.0911°
orbit number at epoch: 0

The dashed part of the orbit path shows where the satellite is in the earth's shadow,  

DLR